Location: *
(48.8780°N, 19.2358°E)
Time: 09:15:44
(UTC+00:00)

STARLINK-63 - Pass Details

Date: 18 October 2019
Orbit: 548 x 551 km, 53.0° (Epoch: 19 November)

Event Time Altitude Azimuth Distance (km) Brightness Sun altitude
Rises 17:35:07 0° 272° (W) 2,717 8.9 -18.3°
Reaches altitude 10° 17:37:25 10° 278° (W) 1,825 7.5 -18.6°
Maximum altitude 17:41:27 48° 354° (N) 725 4.2 -19.3°
Enters shadow 17:42:41 36° 42° (NE) 891 4.4 -19.5°
